| time (UTC) | temp C | wind direction | speed KPH | gust KPH | rain 1hr cm | rain 24hr cm | rain mn cm | humidity % | barometer mb |
| 20260906040031 | 25 | 175 | 0.0 | 0.0 | 0.00 | 0.61 | 0.00 | 92 | 1013.3 |
| 20260906035029 | 25 | 175 | 0.0 | 0.0 | 0.00 | 0.61 | 0.61 | 92 | 1013.3 |
| 20260906034029 | 25 | 176 | 0.0 | 0.0 | 0.00 | 0.61 | 0.61 | 91 | 1013.3 |
| 20260906033454 | 25 | 175 | 0.0 | 0.0 | 0.00 | 0.61 | 0.61 | 91 | 1013.4 |
| 20260906032500 | 25 | 176 | 0.0 | 4.8 | 0.00 | 0.61 | 0.61 | 91 | 1013.4 |
| 20260906031018 | 25 | 175 | 0.0 | 6.4 | 0.00 | 0.61 | 0.61 | 90 | 1013.5 |
| 20260906030018 | 25 | 176 | 3.2 | 8.0 | 0.00 | 0.61 | 0.61 | 90 | 1013.4 |
| 20260906025930 | 25 | 176 | 4.8 | 11.3 | 0.00 | 0.61 | 0.61 | 90 | 1013.4 |
| 20260906024018 | 25 | 191 | 3.2 | 6.4 | 0.00 | 0.61 | 0.61 | 90 | 1013.5 |
| 20260906023019 | 26 | 190 | 6.4 | 16.1 | 0.00 | 0.61 | 0.61 | 90 | 1013.6 |
| 20260906022015 | 26 | 163 | 6.4 | 11.3 | 0.00 | 0.61 | 0.61 | 91 | 1013.6 |
| 20260906021501 | 26 | 173 | 4.8 | 14.5 | 0.00 | 0.61 | 0.61 | 92 | 1013.5 |
| 20260906020017 | 25 | 194 | 3.2 | 11.3 | 0.00 | 0.64 | 0.61 | 92 | 1013.4 |
| 20260906015014 | 25 | 154 | 3.2 | 8.0 | 0.00 | 0.64 | 0.61 | 92 | 1013.4 |
| 20260906014502 | 25 | 146 | 3.2 | 6.4 | 0.00 | 0.64 | 0.61 | 92 | 1013.4 |
| 20260906013013 | 25 | 135 | 1.6 | 4.8 | 0.00 | 0.64 | 0.61 | 92 | 1013.2 |
| 20260906012015 | 25 | 131 | 0.0 | 4.8 | 0.00 | 0.66 | 0.61 | 92 | 1013.3 |
| 20260906011017 | 25 | 129 | 1.6 | 4.8 | 0.00 | 0.69 | 0.61 | 91 | 1013.1 |
| 20260906010456 | 26 | 129 | 0.0 | 3.2 | 0.00 | 0.69 | 0.61 | 91 | 1013.0 |
| 20260906005011 | 26 | 129 | 1.6 | 6.4 | 0.00 | 0.69 | 0.61 | 91 | 1012.9 |
| 20260906004009 | 26 | 129 | 3.2 | 11.3 | 0.00 | 0.69 | 0.61 | 91 | 1012.7 |
| 20260906003451 | 26 | 115 | 3.2 | 12.9 | 0.00 | 0.69 | 0.61 | 91 | 1012.8 |
| 20260906002009 | 26 | 229 | 0.0 | 4.8 | 0.00 | 0.69 | 0.61 | 92 | 1012.6 |
| 20260906001006 | 26 | 230 | 0.0 | 3.2 | 0.00 | 0.74 | 0.61 | 92 | 1012.5 |
| 20260906000005 | 26 | 230 | 0.0 | 1.6 | 0.00 | 0.74 | 0.61 | 91 | 1012.5 |
| 20260905235005 | 26 | 229 | 1.6 | 6.4 | 0.00 | 0.74 | 0.61 | 91 | 1012.5 |
| 20260905234006 | 26 | 258 | 1.6 | 6.4 | 0.00 | 0.74 | 0.61 | 91 | 1012.5 |
| 20260905233008 | 26 | 344 | 0.0 | 3.2 | 0.00 | 0.74 | 0.61 | 90 | 1012.4 |
| 20260905232434 | 26 | 346 | 0.0 | 1.6 | 0.00 | 0.74 | 0.61 | 89 | 1012.3 |
| 20260905231438 | 26 | 346 | 0.0 | 3.2 | 0.00 | 0.74 | 0.61 | 90 | 1012.0 |
| 20260905225955 | 27 | 346 | 1.6 | 4.8 | 0.00 | 0.74 | 0.61 | 89 | 1012.2 |
| 20260905224956 | 26 | 346 | 3.2 | 6.4 | 0.03 | 0.74 | 0.61 | 90 | 1012.3 |
| 20260905223956 | 26 | 344 | 1.6 | 8.0 | 0.05 | 0.74 | 0.61 | 91 | 1012.8 |
| 20260905222951 | 26 | 354 | 1.6 | 6.4 | 0.23 | 0.74 | 0.61 | 91 | 1012.8 |
| 20260905221952 | 26 | 356 | 1.6 | 6.4 | 0.46 | 0.74 | 0.61 | 90 | 1012.6 |
| 20260905221437 | 26 | 350 | 4.8 | 9.7 | 0.58 | 0.74 | 0.61 | 90 | 1012.8 |
| 20260905215951 | 25 | 15 | 3.2 | 6.4 | 0.58 | 0.74 | 0.61 | 89 | 1012.6 |
| 20260905214951 | 25 | 19 | 4.8 | 12.9 | 0.56 | 0.71 | 0.58 | 88 | 1012.6 |
| 20260905213949 | 25 | 355 | 9.7 | 24.1 | 0.53 | 0.69 | 0.58 | 87 | 1012.6 |
| 20260905213509 | 27 | 271 | 17.7 | 45.1 | 0.13 | 0.28 | 0.15 | 75 | 1012.8 |
| 20260905213433 | 25 | 10 | 9.7 | 24.1 | 0.36 | 0.51 | 0.41 | 85 | 1013.0 |
| 20260905211430 | 31 | 229 | 8.0 | 19.3 | 0.00 | 0.18 | 0.03 | 66 | 1012.5 |
| 20260905205948 | 32 | 235 | 4.8 | 14.5 | 0.00 | 0.43 | 0.03 | 65 | 1012.1 |
| 20260905204950 | 33 | 283 | 4.8 | 11.3 | 0.00 | 0.46 | 0.03 | 63 | 1011.9 |
| 20260905203950 | 34 | 302 | 4.8 | 12.9 | 0.00 | 0.46 | 0.03 | 60 | 1011.7 |
| 20260905202948 | 35 | 269 | 6.4 | 16.1 | 0.00 | 0.46 | 0.03 | 62 | 1011.9 |
| 20260905201947 | 33 | 262 | 8.0 | 16.1 | 0.00 | 0.46 | 0.03 | 65 | 1011.7 |
| 20260905201907 | 34 | 246 | 6.4 | 20.9 | 0.00 | 0.46 | 0.03 | 61 | 1011.9 |
| 20260905195946 | 34 | 306 | 4.8 | 16.1 | 0.00 | 0.46 | 0.03 | 61 | 1012.0 |
| 20260905194947 | 35 | 328 | 8.0 | 17.7 | 0.00 | 0.46 | 0.03 | 62 | 1012.0 |
| 20260905193946 | 35 | 15 | 8.0 | 17.7 | 0.00 | 0.46 | 0.03 | 61 | 1012.0 |
| 20260905192946 | 34 | 349 | 8.0 | 16.1 | 0.00 | 0.46 | 0.03 | 66 | 1012.3 |
| 20260905191939 | 32 | 299 | 6.4 | 17.7 | 0.00 | 0.46 | 0.03 | 68 | 1012.3 |
| 20260905190937 | 33 | 300 | 6.4 | 17.7 | 0.00 | 0.46 | 0.03 | 64 | 1012.5 |
| 20260905185938 | 35 | 223 | 4.8 | 20.9 | 0.00 | 0.46 | 0.03 | 60 | 1012.5 |
| 20260905184939 | 35 | 264 | 6.4 | 16.1 | 0.00 | 0.46 | 0.03 | 56 | 1012.4 |
| 20260905183929 | 35 | 237 | 8.0 | 20.9 | 0.00 | 0.46 | 0.03 | 57 | 1012.4 |
| 20260905183409 | 35 | 242 | 8.0 | 17.7 | 0.00 | 0.46 | 0.03 | 57 | 1012.4 |
| 20260905182405 | 35 | 230 | 8.0 | 17.7 | 0.00 | 0.46 | 0.03 | 60 | 1012.6 |
| 20260905180931 | 34 | 244 | 4.8 | 12.9 | 0.00 | 0.46 | 0.03 | 64 | 1012.7 |
| 20260905175929 | 35 | 244 | 6.4 | 14.5 | 0.00 | 0.46 | 0.03 | 61 | 1012.9 |
| 20260905174929 | 35 | 293 | 4.8 | 11.3 | 0.00 | 0.46 | 0.03 | 61 | 1013.1 |
| 20260905174410 | 33 | 250 | 6.4 | 14.5 | 0.00 | 0.46 | 0.03 | 66 | 1013.2 |
| 20260905172930 | 33 | 212 | 4.8 | 9.7 | 0.00 | 0.46 | 0.03 | 63 | 1013.4 |
| 20260905171930 | 32 | 278 | 4.8 | 11.3 | 0.00 | 0.46 | 0.03 | 65 | 1013.6 |
| 20260905170926 | 34 | 294 | 6.4 | 14.5 | 0.00 | 0.46 | 0.03 | 64 | 1013.7 |
| 20260905170844 | 33 | 287 | 8.0 | 16.1 | 0.00 | 0.46 | 0.03 | 64 | 1013.8 |
| 20260905165422 | 33 | 216 | 6.4 | 14.5 | 0.00 | 0.46 | 0.03 | 66 | 1014.0 |
| 20260905164413 | 33 | 286 | 6.4 | 16.1 | 0.00 | 0.46 | 0.03 | 66 | 1014.2 |
| 20260905162924 | 32 | 273 | 6.4 | 11.3 | 0.00 | 0.46 | 0.03 | 68 | 1014.3 |
| 20260905161924 | 33 | 253 | 6.4 | 17.7 | 0.00 | 0.46 | 0.03 | 65 | 1014.4 |
| 20260905160925 | 33 | 245 | 6.4 | 14.5 | 0.00 | 0.46 | 0.03 | 65 | 1014.5 |
| 20260905155922 | 32 | 275 | 6.4 | 17.7 | 0.00 | 0.46 | 0.03 | 67 | 1014.6 |
| 20260905154922 | 32 | 232 | 4.8 | 16.1 | 0.00 | 0.46 | 0.03 | 71 | 1014.7 |
| 20260905153924 | 32 | 279 | 6.4 | 12.9 | 0.00 | 0.46 | 0.03 | 70 | 1014.7 |
| 20260905152922 | 32 | 248 | 4.8 | 12.9 | 0.00 | 0.46 | 0.03 | 69 | 1014.8 |
| 20260905151922 | 32 | 232 | 4.8 | 14.5 | 0.00 | 0.46 | 0.03 | 70 | 1014.9 |
| 20260905150925 | 31 | 237 | 4.8 | 17.7 | 0.00 | 0.46 | 0.03 | 72 | 1014.8 |
| 20260905145912 | 31 | 217 | 4.8 | 12.9 | 0.00 | 0.46 | 0.03 | 76 | 1014.9 |
| 20260905144914 | 31 | 237 | 4.8 | 11.3 | 0.00 | 0.46 | 0.03 | 77 | 1014.9 |
| 20260905143912 | 30 | 273 | 3.2 | 11.3 | 0.00 | 0.46 | 0.03 | 79 | 1014.7 |
| 20260905142909 | 30 | 268 | 4.8 | 9.7 | 0.00 | 0.46 | 0.03 | 80 | 1014.8 |
| 20260905142356 | 30 | 206 | 4.8 | 11.3 | 0.00 | 0.46 | 0.03 | 81 | 1014.7 |
| 20260905140909 | 30 | 260 | 3.2 | 8.0 | 0.00 | 0.46 | 0.03 | 82 | 1014.9 |
| 20260905135911 | 29 | 236 | 1.6 | 8.0 | 0.00 | 0.46 | 0.03 | 86 | 1014.9 |
| 20260905134910 | 28 | 237 | 1.6 | 8.0 | 0.00 | 0.46 | 0.03 | 86 | 1014.9 |
| 20260905133911 | 28 | 240 | 1.6 | 6.4 | 0.00 | 0.46 | 0.03 | 88 | 1014.8 |
| 20260905132909 | 28 | 244 | 3.2 | 6.4 | 0.00 | 0.46 | 0.03 | 90 | 1014.8 |
| 20260905132838 | 27 | 256 | 1.6 | 6.4 | 0.00 | 0.46 | 0.03 | 93 | 1014.8 |
| 20260905130859 | 27 | 266 | 1.6 | 4.8 | 0.00 | 0.46 | 0.03 | 94 | 1014.8 |
| 20260905125857 | 27 | 328 | 0.0 | 3.2 | 0.00 | 0.46 | 0.03 | 94 | 1014.9 |
| 20260905124858 | 26 | 329 | 0.0 | 3.2 | 0.00 | 0.46 | 0.03 | 95 | 1014.8 |
| 20260905123857 | 26 | 329 | 0.0 | 1.6 | 0.00 | 0.46 | 0.03 | 95 | 1014.8 |
| 20260905123338 | 26 | 328 | 0.0 | 1.6 | 0.00 | 0.46 | 0.03 | 95 | 1014.6 |
| 20260905121857 | 25 | 329 | 0.0 | 0.0 | 0.00 | 0.46 | 0.03 | 95 | 1014.6 |
| 20260905121339 | 25 | 329 | 0.0 | 0.0 | 0.00 | 0.46 | 0.03 | 95 | 1014.5 |
| 20260905115856 | 25 | 328 | 0.0 | 0.0 | 0.00 | 0.46 | 0.03 | 95 | 1014.4 |
| 20260905115338 | 24 | 329 | 0.0 | 0.0 | 0.00 | 0.46 | 0.03 | 95 | 1014.5 |
| 20260905113853 | 24 | 329 | 0.0 | 0.0 | 0.00 | 0.46 | 0.03 | 95 | 1014.3 |
| 20260905112853 | 23 | 329 | 0.0 | 0.0 | 0.00 | 0.46 | 0.03 | 95 | 1014.3 |
| 20260905112802 | 24 | 329 | 0.0 | 1.6 | 0.00 | 0.46 | 0.03 | 95 | 1014.2 |
| 20260905110851 | 23 | 328 | 0.0 | 1.6 | 0.00 | 0.46 | 0.03 | 95 | 1014.2 |
| 20260905105849 | 23 | 329 | 0.0 | 0.0 | 0.00 | 0.46 | 0.03 | 95 | 1014.1 |
| 20260905105338 | 23 | 329 | 0.0 | 0.0 | 0.00 | 0.46 | 0.03 | 95 | 1013.9 |
| 20260905103845 | 23 | 329 | 0.0 | 0.0 | 0.00 | 0.46 | 0.03 | 95 | 1014.0 |
| 20260905102844 | 23 | 328 | 0.0 | 0.0 | 0.00 | 0.46 | 0.03 | 95 | 1013.8 |
| 20260905101844 | 23 | 329 | 0.0 | 0.0 | 0.00 | 0.46 | 0.03 | 95 | 1013.8 |
| 20260905100846 | 23 | 329 | 0.0 | 0.0 | 0.00 | 0.46 | 0.03 | 95 | 1013.8 |
| 20260905095831 | 23 | 328 | 0.0 | 0.0 | 0.00 | 0.46 | 0.03 | 95 | 1013.8 |
| 20260905094829 | 23 | 329 | 0.0 | 0.0 | 0.00 | 0.46 | 0.03 | 95 | 1013.8 |
| 20260905094752 | 23 | 328 | 0.0 | 0.0 | 0.00 | 0.46 | 0.03 | 95 | 1013.8 |
| 20260905092829 | 23 | 329 | 0.0 | 0.0 | 0.00 | 0.46 | 0.03 | 95 | 1013.7 |
| 20260905092308 | 23 | 328 | 0.0 | 0.0 | 0.03 | 0.46 | 0.03 | 95 | 1013.8 |
| 20260905090828 | 23 | 329 | 0.0 | 0.0 | 0.03 | 0.46 | 0.03 | 95 | 1013.7 |
| 20260905085828 | 24 | 329 | 0.0 | 0.0 | 0.03 | 0.46 | 0.03 | 95 | 1013.8 |
| 20260905084827 | 24 | 328 | 0.0 | 0.0 | 0.03 | 0.46 | 0.03 | 95 | 1013.7 |
| 20260905083829 | 24 | 329 | 0.0 | 0.0 | 0.03 | 0.46 | 0.03 | 95 | 1013.8 |
| 20260905082828 | 24 | 328 | 0.0 | 0.0 | 0.03 | 0.46 | 0.03 | 95 | 1013.8 |
| 20260905081827 | 24 | 329 | 0.0 | 1.6 | 0.00 | 0.43 | 0.00 | 95 | 1013.7 |
| 20260905080828 | 24 | 328 | 0.0 | 0.0 | 0.00 | 0.43 | 0.00 | 95 | 1013.7 |
| 20260905075828 | 24 | 329 | 0.0 | 0.0 | 0.00 | 0.43 | 0.00 | 95 | 1013.7 |
| 20260905074828 | 24 | 329 | 0.0 | 0.0 | 0.00 | 0.43 | 0.00 | 94 | 1013.6 |
| 20260905074309 | 24 | 329 | 0.0 | 0.0 | 0.00 | 0.43 | 0.00 | 94 | 1013.6 |
| 20260905072826 | 24 | 329 | 0.0 | 0.0 | 0.00 | 0.43 | 0.00 | 94 | 1013.6 |
| 20260905071827 | 24 | 329 | 0.0 | 0.0 | 0.00 | 0.43 | 0.00 | 94 | 1013.8 |
| 20260905071747 | 24 | 329 | 0.0 | 0.0 | 0.00 | 0.43 | 0.00 | 95 | 1013.8 |
| 20260905065824 | 24 | 328 | 0.0 | 0.0 | 0.00 | 0.43 | 0.00 | 94 | 1014.0 |
| 20260905064824 | 25 | 329 | 0.0 | 0.0 | 0.00 | 0.43 | 0.00 | 95 | 1014.0 |
| 20260905063813 | 24 | 329 | 0.0 | 0.0 | 0.00 | 0.43 | 0.00 | 95 | 1014.0 |
| 20260905062811 | 25 | 328 | 0.0 | 0.0 | 0.00 | 0.43 | 0.00 | 95 | 1014.0 |
| 20260905061810 | 25 | 329 | 0.0 | 0.0 | 0.00 | 0.43 | 0.00 | 94 | 1014.1 |
| 20260905061246 | 25 | 328 | 0.0 | 0.0 | 0.00 | 0.43 | 0.00 | 94 | 1014.2 |
| 20260905055805 | 25 | 329 | 0.0 | 0.0 | 0.00 | 0.43 | 0.00 | 94 | 1014.3 |
| 20260905054804 | 25 | 328 | 0.0 | 0.0 | 0.00 | 0.43 | 0.00 | 94 | 1014.4 |
| 20260905053803 | 25 | 329 | 0.0 | 0.0 | 0.00 | 0.43 | 0.00 | 94 | 1014.4 |
| 20260905052802 | 25 | 328 | 0.0 | 0.0 | 0.00 | 0.43 | 0.00 | 94 | 1014.6 |
| 20260905052245 | 25 | 329 | 0.0 | 1.6 | 0.00 | 0.43 | 0.00 | 94 | 1014.6 |
| 20260905050801 | 25 | 329 | 0.0 | 0.0 | 0.00 | 0.43 | 0.00 | 94 | 1014.8 |
| 20260905045801 | 25 | 329 | 0.0 | 0.0 | 0.00 | 0.43 | 0.00 | 94 | 1014.9 |
| 20260905044804 | 25 | 329 | 0.0 | 0.0 | 0.00 | 0.43 | 0.00 | 94 | 1015.0 |
| 20260905043801 | 25 | 328 | 0.0 | 3.2 | 0.00 | 0.43 | 0.00 | 94 | 1015.1 |
| 20260905043240 | 25 | 329 | 0.0 | 1.6 | 0.00 | 0.43 | 0.00 | 94 | 1015.1 |
| 20260905041759 | 25 | 329 | 0.0 | 1.6 | 0.00 | 0.43 | 0.00 | 94 | 1015.1 |
| 20260905040757 | 25 | 329 | 0.0 | 0.0 | 0.00 | 0.43 | 0.00 | 94 | 1015.1 |